Total_Precipitation_Accumulation
0.83 0.77 1.26 1.80 1.64 1.07 1.23 0.92 0.50 0.42 0.62 0.68 0.39 0.67 0.67 0.60 0.47 0.20 0.13 0.05 0.02 0.01 0.01 0.02 0.03 0.02 0.01
0.60 0.89 0.99 1.38 1.51 1.68 1.56 1.30 0.87 0.71 0.62 0.73 0.60 0.37 0.54 0.57 0.53 0.46 0.23 0.07 0.01 0.01 0.01 0.02 0.03 0.02 0.01
0.53 0.65 0.99 1.14 1.34 1.58 1.45 1.59 1.43 1.18 0.78 0.57 0.46 0.37 0.26 0.38 0.43 0.45 0.45 0.22 0.05 0.01 0.01 0.01 0.02 0.01 0.01
0.47 0.55 0.76 1.04 1.52 1.94 1.72 1.26 1.49 1.50 1.61 1.24 1.00 0.67 0.38 0.22 0.23 0.30 0.42 0.38 0.25 0.05 0.00 0.01 0.01 0.00 0.00
0.31 0.51 0.58 0.93 1.32 2.11 1.84 1.74 1.24 0.95 1.37 1.58 1.43 1.13 0.78 0.40 0.19 0.16 0.30 0.39 0.33 0.14 0.01 0.00 0.00 0.00 0.00
0.19 0.41 0.54 0.75 1.12 1.72 2.13 2.18 2.18 1.12 0.87 1.21 1.28 1.30 1.06 0.79 0.45 0.21 0.17 0.29 0.31 0.24 0.06 0.00 0.00 0.00 0.00
0.13 0.29 0.51 0.68 0.95 1.39 2.04 2.22 1.80 1.73 1.48 1.42 1.23 1.03 0.82 0.75 0.79 0.60 0.35 0.22 0.24 0.16 0.12 0.02 0.00 0.00 0.00
0.08 0.14 0.36 0.57 0.74 1.11 1.48 2.12 1.90 1.38 1.55 1.64 1.54 1.25 0.91 0.68 0.52 0.41 0.45 0.37 0.22 0.15 0.11 0.04 0.00 0.00 0.00
0.04 0.08 0.25 0.53 0.67 0.88 1.02 1.35 2.52 2.14 1.61 1.55 1.33 1.39 1.02 0.77 0.60 0.58 0.48 0.39 0.33 0.17 0.09 0.06 0.01 0.00 0.00
0.00 0.04 0.11 0.33 0.56 0.73 0.93 1.16 1.70 2.25 2.12 1.72 1.37 1.59 1.92 1.08 0.43 0.46 0.66 0.71 0.46 0.30 0.15 0.09 0.03 0.01 0.00
0.01 0.00 0.03 0.11 0.32 0.50 0.81 1.07 1.51 1.74 2.81 2.55 1.92 1.59 1.30 1.56 0.85 0.46 0.44 0.58 0.67 0.54 0.31 0.16 0.08 0.01 0.00
0.05 0.01 0.02 0.05 0.12 0.30 0.57 0.88 1.20 1.45 1.76 2.38 2.33 1.63 1.30 0.95 1.00 0.98 0.58 0.35 0.37 0.54 0.57 0.30 0.19 0.04 0.00
0.12 0.04 0.01 0.03 0.05 0.17 0.39 0.74 1.07 1.23 1.49 1.71 1.72 1.53 1.24 0.91 0.81 1.07 1.12 0.80 0.45 0.31 0.42 0.46 0.25 0.15 0.02
0.06 0.02 0.01 0.02 0.05 0.12 0.27 0.52 0.94 1.14 1.19 1.39 1.29 1.36 1.30 0.86 0.79 1.14 1.31 1.07 0.90 0.57 0.31 0.31 0.27 0.11 0.03
0.09 0.05 0.02 0.02 0.04 0.06 0.17 0.31 0.70 0.92 1.10 1.19 1.21 1.28 1.15 0.94 0.86 0.94 1.22 1.06 0.78 0.76 0.60 0.39 0.30 0.17 0.02
0.10 0.10 0.07 0.02 0.02 0.04 0.11 0.22 0.35 0.62 0.97 1.08 1.16 1.51 1.38 1.29 0.98 0.73 0.94 0.88 0.66 0.57 0.51 0.47 0.32 0.17 0.03
0.06 0.07 0.04 0.02 0.04 0.06 0.06 0.14 0.26 0.41 0.66 1.02 1.13 1.33 1.34 1.00 0.94 0.90 0.79 0.77 0.64 0.77 0.55 0.40 0.24 0.12 0.03